Precipitable_Water
0.64 0.69 0.69 0.72 0.77 0.81 0.81 0.82 0.84 0.86 0.85 0.84 0.82 0.82 0.81 0.77 0.73 0.71 0.69 0.68 0.67 0.65 0.64 0.65 0.65 0.65 0.67
0.62 0.66 0.66 0.72 0.76 0.75 0.76 0.79 0.79 0.82 0.85 0.82 0.81 0.81 0.79 0.78 0.75 0.70 0.68 0.66 0.63 0.62 0.61 0.60 0.60 0.58 0.57
0.58 0.66 0.69 0.73 0.71 0.73 0.72 0.74 0.77 0.79 0.82 0.81 0.79 0.79 0.76 0.74 0.73 0.71 0.68 0.65 0.62 0.60 0.56 0.53 0.51 0.50 0.49
0.60 0.62 0.65 0.69 0.69 0.64 0.63 0.68 0.67 0.72 0.74 0.77 0.76 0.73 0.72 0.71 0.69 0.66 0.65 0.64 0.62 0.58 0.53 0.49 0.48 0.46 0.44
0.58 0.59 0.60 0.60 0.59 0.63 0.60 0.62 0.64 0.67 0.66 0.66 0.66 0.66 0.66 0.65 0.63 0.61 0.61 0.58 0.54 0.50 0.47 0.44 0.41 0.40 0.37
0.59 0.56 0.58 0.61 0.62 0.60 0.59 0.56 0.51 0.65 0.61 0.58 0.62 0.60 0.62 0.61 0.60 0.59 0.57 0.51 0.47 0.45 0.43 0.42 0.41 0.40 0.38
0.57 0.58 0.58 0.61 0.62 0.59 0.59 0.57 0.55 0.60 0.59 0.52 0.58 0.55 0.59 0.59 0.59 0.54 0.49 0.48 0.46 0.44 0.42 0.39 0.37 0.36 0.34
0.62 0.62 0.64 0.66 0.64 0.62 0.60 0.58 0.59 0.59 0.59 0.48 0.54 0.51 0.56 0.56 0.51 0.48 0.48 0.46 0.44 0.41 0.37 0.34 0.33 0.32 0.31
0.64 0.65 0.66 0.66 0.65 0.62 0.56 0.53 0.50 0.51 0.55 0.51 0.50 0.47 0.46 0.46 0.48 0.48 0.47 0.43 0.39 0.35 0.32 0.31 0.30 0.29 0.28
0.57 0.59 0.61 0.61 0.62 0.62 0.59 0.52 0.48 0.46 0.49 0.44 0.40 0.39 0.37 0.43 0.44 0.43 0.40 0.37 0.33 0.30 0.30 0.29 0.27 0.23 0.23
0.53 0.54 0.55 0.56 0.57 0.58 0.57 0.51 0.42 0.35 0.40 0.39 0.37 0.37 0.37 0.35 0.36 0.36 0.34 0.32 0.29 0.28 0.27 0.27 0.25 0.22 0.18
0.48 0.48 0.49 0.49 0.49 0.48 0.45 0.42 0.39 0.36 0.39 0.38 0.33 0.34 0.32 0.30 0.29 0.32 0.30 0.30 0.28 0.26 0.25 0.25 0.22 0.22 0.22
0.45 0.44 0.43 0.42 0.40 0.38 0.38 0.38 0.36 0.36 0.36 0.34 0.32 0.32 0.31 0.28 0.26 0.27 0.26 0.27 0.27 0.26 0.24 0.22 0.20 0.20 0.17
0.41 0.40 0.40 0.38 0.37 0.38 0.36 0.35 0.32 0.32 0.34 0.35 0.34 0.32 0.30 0.29 0.27 0.24 0.25 0.23 0.25 0.25 0.24 0.23 0.22 0.21 0.20
0.40 0.40 0.41 0.41 0.40 0.39 0.36 0.34 0.30 0.29 0.30 0.32 0.33 0.33 0.31 0.29 0.24 0.23 0.22 0.21 0.23 0.23 0.23 0.20 0.20 0.21 0.19
0.41 0.42 0.42 0.40 0.39 0.37 0.35 0.31 0.29 0.29 0.29 0.29 0.29 0.28 0.27 0.28 0.27 0.21 0.19 0.18 0.19 0.21 0.21 0.17 0.15 0.17 0.17
0.43 0.43 0.43 0.42 0.39 0.35 0.33 0.30 0.29 0.29 0.29 0.29 0.27 0.25 0.22 0.19 0.21 0.22 0.18 0.18 0.18 0.17 0.17 0.16 0.14 0.15 0.17
Wind_Speed
30 28 26 24 21 21 20 18 19 19 19 20 20 20 18 17 17 16 16 16 17 15 16 16 16 16 19
29 26 26 24 22 21 19 19 19 18 17 17 16 17 17 17 16 15 15 16 15 15 15 15 15 15 16
29 27 25 24 22 19 19 18 17 15 16 15 13 13 14 15 16 15 14 15 15 16 15 15 15 16 16
26 22 20 20 21 20 19 17 15 14 13 12 11 11 10 11 12 14 14 15 15 14 14 15 15 16 17
23 20 18 17 18 17 17 15 13 12 12 12 11 11 11 11 11 11 12 11 11 12 13 13 14 15 16
21 21 20 18 18 17 17 16 14 13 12 12 12 11 10 10 10 10 10 10 10 10 11 12 13 13 14
20 21 21 19 20 20 18 16 15 14 13 12 11 10 10 10 10 9 9 10 10 11 11 12 13 14 14
19 19 20 18 19 19 19 16 14 13 12 11 11 11 10 9 9 9 10 10 11 11 12 13 13 14 14
15 16 17 17 17 18 17 15 13 13 12 11 11 10 10 10 10 10 10 11 11 11 12 12 12 12 12
13 14 14 14 15 17 17 14 13 12 12 10 10 10 10 11 11 11 11 11 11 11 11 12 11 11 10
11 13 13 13 14 15 14 13 12 10 11 10 10 10 10 10 10 11 11 11 11 11 11 10 10 9 9
10 12 12 13 14 14 12 11 10 9 10 10 10 11 10 10 10 11 10 10 10 10 9 9 8 7 8
10 11 13 13 13 12 11 9 8 8 8 9 9 10 10 10 10 10 10 10 9 9 8 8 8 8 8
11 12 13 13 12 11 10 9 8 8 7 8 9 10 10 10 10 9 10 9 9 8 8 8 8 8 9
12 13 12 12 12 11 10 9 9 9 8 9 8 8 8 9 8 8 8 9 9 8 8 7 7 7 8
13 13 12 12 11 11 10 10 9 9 8 9 9 8 8 7 7 7 7 7 7 7 7 7 7 8 9
13 13 13 12 12 11 11 10 9 9 9 9 9 8 8 8 7 6 5 5 5 5 5 6 8 9 11
Wind_Direction
288 284 279 269 265 261 259 254 253 261 263 262 259 258 252 249 254 256 258 258 259 263 263 261 259 255 254
284 278 274 264 262 256 252 252 254 263 259 261 261 253 249 248 252 256 257 258 261 261 261 259 257 257 259
279 274 268 256 253 246 253 248 251 260 259 250 254 247 248 252 250 253 260 261 264 260 258 257 259 259 260
275 266 260 251 241 247 243 243 247 253 248 242 241 244 253 256 251 256 262 262 262 261 259 259 262 263 264
265 253 250 246 241 235 232 234 240 244 236 240 243 246 254 258 259 259 259 260 260 260 263 265 267 268 269
258 247 245 243 234 228 227 233 241 236 233 246 247 249 252 256 260 261 258 259 262 265 269 271 273 274 274
251 244 238 240 232 229 231 233 237 233 237 241 243 246 252 255 256 259 258 262 265 269 273 276 278 279 278
250 238 234 232 227 230 226 226 227 230 233 239 239 246 252 255 257 259 261 266 270 274 278 280 281 281 278
238 224 223 225 222 219 216 216 224 226 230 238 241 246 251 255 261 264 265 269 274 279 282 284 285 281 280
225 219 219 218 217 216 210 213 219 225 229 236 236 246 257 259 262 262 266 272 276 281 285 288 287 283 282
219 217 214 210 202 201 206 208 211 226 226 237 243 250 259 263 262 264 267 272 277 282 285 286 286 284 281
211 204 200 196 193 194 198 206 218 226 229 241 251 252 257 262 264 263 267 273 277 280 283 282 282 283 284
197 191 188 187 188 193 198 206 214 227 239 248 254 255 257 260 262 264 267 272 274 275 278 277 278 282 288
191 187 187 189 193 201 206 211 221 235 248 256 260 258 259 261 263 264 266 266 268 272 275 276 278 282 290
196 194 196 201 205 209 213 225 234 240 253 261 263 261 259 257 263 264 265 265 265 268 269 273 276 286 295
202 203 206 208 210 216 222 228 233 244 253 258 258 256 256 263 263 262 267 265 262 261 263 272 277 291 302
208 211 212 214 216 219 225 231 238 248 256 258 255 254 255 258 260 258 258 259 259 256 261 272 286 298 304